[[{"header":{"parameterUnit":"m.s-1","parameterCategory":1,"la1":30.2991,"la2":30.254,"lo1":-89.0895,"lo2":-89.0444,"dy":0.0017,"dx":0.0017,"nx":28,"ny":28,"refTime":"2023-11-01T09:00:00:Z","depth":0,"parameterNumber":2,"parameterNumberName":"U-component_of_WINDS"},"data":[0,0,0,0,0,0,0,0,0,0,0,0,0,0,0,0,0,0,0,0,0,0,0,0,0,0,0,0,0,0,0,0,0,0,0,0,0,0,0,0,0,0,0,0,0,0,0,0,0,0,0,0,0,0,0,0,0,0,-5.2075,-5.2075,0,-5.2071,-5.2071,-5.2071,-5.1925,-5.1922,-5.1918,-5.1914,-5.1913,-5.1916,-5.192,0,0,0,0,0,0,0,0,0,0,0,0,0,-5.1961,-5.1964,-5.2075,-5.2075,-5.2075,-5.2071,-5.2071,-5.2071,-5.1926,-5.1921,-5.1917,-5.1913,-5.1912,-5.1916,-5.192,0,0,0,0,0,0,0,0,0,0,0,0,0,-5.199,-5.1965,-5.2075,-5.2002,-5.1996,-5.2071,-5.2071,-5.2071,-5.1927,-5.1921,-5.1916,-5.191,-5.1911,-5.1916,-5.1921,-5.2067,0,0,-5.1937,-5.1939,0,0,0,0,0,0,0,0,-5.1988,-5.1994,-5.2013,-5.2007,-5.2,-5.1993,-5.203,-5.207,-5.1928,-5.1953,-5.1914,-5.1908,-5.1944,-5.1947,-5.1958,-5.2067,-5.2067,-5.1937,-5.194,-5.1943,-5.1944,0,0,0,0,0,0,0,-5.1986,-5.1993,-5.2074,-5.2014,-5.2006,-5.1971,-5.1969,-5.2037,-5.1981,-5.1951,-5.194,-5.1941,-5.194,-5.1954,-5.1957,-5.2067,-5.1937,-5.1942,-5.1945,-5.1947,-5.2296,-5.2302,0,0,0,0,0,0,-5.1994,-5.1993,-5.2074,-5.2073,-5.198,-5.1978,-5.1975,-5.2001,-5.198,-5.1971,-5.1946,-5.1935,-5.1947,-5.1951,-5.1957,-5.2127,-5.1943,-5.1948,-5.1951,-5.229,-5.2297,-5.2304,0,0,0,0,0,0,-5.1992,-5.2003,-5.2074,-5.203,-5.2037,-5.1986,-5.2016,-5.2004,-5.2017,-5.1976,-5.1966,-5.197,-5.1943,-5.1949,-5.2041,-5.2125,-5.195,-5.1955,-5.2283,-5.2292,-5.2301,-5.2468,0,0,0,0,0,0,-5.1989,-5.2003,-5.2057,-5.2032,-5.2039,-5.2157,-5.2021,-5.2008,-5.2026,-5.2011,-5.1996,-5.1988,-5.1939,-5.2034,-5.2046,-5.2129,-5.1959,-5.2275,-5.2287,-5.2298,-5.2455,-5.2482,-5.2505,0,0,0,0,0,-5.1986,-5.2104,-5.206,-5.2071,-5.2106,-5.2162,-5.2166,-5.2107,-5.2034,-5.2088,-5.2062,-5.1989,-5.2114,-5.2044,-5.2057,-5.2142,-5.2269,-5.2284,-5.2297,-5.2443,-5.2476,-5.2504,0,0,0,0,0,0,-5.214,-5.21,-5.205,-5.2164,-5.2168,-5.2138,-5.2204,-5.2143,-5.2168,-5.2153,-5.2079,-5.2077,-5.218,-5.217,-5.2094,-5.2283,-5.2179,-5.2196,-5.2286,-5.2317,-5.2341,-5.2342,-5.1963,0,0,0,0,0,-5.2187,-5.2236,-5.2198,-5.2302,-5.2307,-5.2256,-5.2278,-5.2232,-5.2233,-5.2234,-5.2214,-5.2219,-5.2259,-5.2287,-5.2322,-5.2453,-5.2448,-5.2518,-5.2543,-5.2564,-5.258,-5.265,-5.2681,-5.2349,-5.2349,-5.2349,0,0,-5.2285,-5.2269,-5.2304,-5.2333,-5.233,-5.2383,-5.2258,-5.2319,-5.2358,-5.2243,-5.2328,-5.2315,-5.2315,-5.2427,-5.2476,-5.2422,-5.267,-5.2582,-5.2599,-5.2603,-5.2667,-5.2698,-5.2726,-5.2359,-5.2357,-5.2356,0,0,-5.2491,-5.2483,-5.257,-5.257,-5.2567,-5.2533,-5.2554,-5.2534,-5.252,-5.2604,-5.252,-5.2566,-5.2636,-5.2641,-5.2652,-5.2862,-5.2796,-5.2876,-5.3007,-5.3076,-5.3102,-5.3125,-5.3201,-5.3229,-5.2892,-5.2892,-5.2892,0,-5.2613,-5.2688,-5.2622,-5.2689,-5.2705,-5.2603,-5.2691,-5.2695,-5.2705,-5.2719,-5.2659,-5.2746,-5.2739,-5.2852,-5.2903,-5.2916,-5.2938,-5.2877,-5.3103,-5.3126,-5.3146,-5.3217,-5.3246,-5.2902,-5.2901,-5.29,-5.2899,0,-5.284,-5.2894,-5.2964,-5.2975,-5.2999,-5.3076,-5.3023,-5.3055,-5.3008,-5.2981,-5.3069,-5.3057,-5.3088,-5.3112,-5.3066,-5.3219,-5.3186,-5.3116,-5.3009,-5.3188,-5.3254,-5.3281,-5.2916,-5.2912,-5.2909,-5.2907,0,0,-5.3141,-5.3116,-5.3143,-5.3147,-5.3138,-5.3179,-5.3253,-5.3283,-5.3312,-5.3323,-5.3384,-5.3447,-5.3383,-5.3396,-5.3351,-5.3411,-5.358,-5.3334,-5.3333,-5.3381,-5.3749,-5.3802,-5.3834,-5.3536,-5.3541,-5.3545,-5.3749,0,-5.334,-5.3463,-5.3406,-5.3536,-5.3586,-5.3492,-5.3556,-5.3558,-5.3536,-5.3576,-5.355,-5.3597,-5.3508,-5.3516,-5.3571,-5.3548,-5.3653,-5.3532,-5.3593,-5.3596,-5.3596,-5.3868,-5.3924,-5.4117,-5.3774,-5.3779,-5.3782,0,-5.3588,-5.3609,-5.3744,-5.3727,-5.3746,-5.3805,-5.3829,-5.3868,-5.387,-5.3849,-5.3865,-5.3806,-5.3879,-5.3773,-5.3874,-5.3793,-5.3815,-5.3807,-5.3813,-5.3817,-5.37,-5.388,-5.4176,-5.4206,-5.3821,-5.3818,-5.3815,0,-5.3795,-5.3857,-5.3946,-5.3953,-5.3936,-5.3979,-5.3975,-5.397,-5.3993,-5.4014,-5.4028,-5.4059,-5.4075,-5.4101,-5.4053,-5.398,-5.416,-5.405,-5.4146,-5.4148,-5.4188,-5.4186,-5.4493,-5.4203,-5.4202,-5.4202,-5.4201,0,-5.4023,-5.411,-5.4039,-5.4094,-5.4189,-5.4124,-5.422,-5.4205,-5.4202,-5.4254,-5.4175,-5.4225,-5.4157,-5.4202,-5.4165,-5.4254,-5.4262,-5.4249,-5.4238,-5.4256,-5.4258,-5.4269,-5.4254,-5.4209,-5.4208,-5.4206,-5.4205,0,-5.427,-5.4226,-5.4317,-5.4293,-5.429,-5.4361,-5.4341,-5.4392,-5.4364,-5.443,-5.4442,-5.4399,-5.4447,-5.4402,-5.4448,-5.4423,-5.4543,-5.4512,-5.4542,-5.4533,-5.4632,-5.4624,-5.4957,-5.4998,-5.4681,-5.4684,-5.4687,0,-5.4418,-5.4483,-5.4466,-5.4495,-5.4495,-5.4541,-5.4564,-5.4503,-5.453,-5.4538,-5.4589,-5.463,-5.466,-5.4742,-5.4716,-5.4751,-5.4721,-5.4836,-5.4726,-5.4743,-5.4724,-5.4721,-5.4727,-5.4858,-5.4862,-5.4865,-5.4867,0,-5.4687,-5.4662,-5.4697,-5.4726,-5.4755,-5.4774,-5.4787,-5.4816,-5.4754,-5.4788,-5.4836,-5.486,-5.4907,-5.495,-5.4977,-5.4973,-5.4912,-5.4902,-5.4926,-5.4945,-5.496,-5.4954,-5.4603,-5.4895,-5.4892,-5.489,-5.4888,-5.4887,-5.4889,-5.4942,-5.4939,-5.4981,-5.4985,-5.5,-5.5047,-5.5026,-5.5064,-5.5097,-5.506,-5.512,-5.5122,-5.5152,-5.5156,-5.5203,-5.5155,-5.5189,-5.5198,-5.5208,-5.5223,-5.4953,-5.5207,-5.5207,-5.5206,-5.5205,-5.5205,0,-5.5153,-5.5147,-5.5187,-5.5208,-5.5242,-5.518,-5.5192,-5.5225,-5.5278,-5.5285,-5.5316,-5.5373,-5.5415,-5.5393,-5.5429,-5.5471,-5.5444,-5.5483,-5.5479,-5.548,-5.5263,-5.5239,-5.5504,-5.5504,-5.5504,-5.5504,-5.5504,-5.5504,-5.5295,-5.5382,-5.5358,-5.5447,-5.5441,-5.5498,-5.551,-5.5525,-5.553,-5.5596,-5.563,-5.5615,-5.5611,-5.5647,-5.5683,-5.5676,-5.5693,-5.5743,-5.5726,-5.5524,-5.5495,-5.5466,-5.5443,-5.5747,-5.5748,-5.5938,-5.594,-5.5941]},{"header":{"parameterUnit":"m.s-1","parameterCategory":1,"la1":30.2991,"la2":30.254,"lo1":-89.0895,"lo2":-89.0444,"dy":0.0017,"dx":0.0017,"nx":28,"ny":28,"refTime":"2023-11-01T09:00:00:Z","depth":0,"parameterNumber":3,"parameterNumberName":"V-component_of_WINDS"},"data":[0,0,0,0,0,0,0,0,0,0,0,0,0,0,0,0,0,0,0,0,0,0,0,0,0,0,0,0,0,0,0,0,0,0,0,0,0,0,0,0,0,0,0,0,0,0,0,0,0,0,0,0,0,0,0,0,0,0,-0.6269,-0.6269,0,-0.6289,-0.629,-0.629,-0.6266,-0.6266,-0.6265,-0.6264,-0.6287,-0.6288,-0.629,0,0,0,0,0,0,0,0,0,0,0,0,0,-0.621,-0.6211,-0.6269,-0.6269,-0.6269,-0.6289,-0.629,-0.629,-0.6267,-0.6266,-0.6264,-0.6263,-0.6286,-0.6288,-0.629,0,0,0,0,0,0,0,0,0,0,0,0,0,-0.6233,-0.6211,-0.6269,-0.626,-0.626,-0.6289,-0.629,-0.629,-0.6267,-0.6266,-0.6264,-0.6263,-0.6286,-0.6288,-0.629,-0.633,0,0,-0.6297,-0.6298,0,0,0,0,0,0,0,0,-0.6232,-0.6236,-0.6261,-0.6261,-0.626,-0.6274,-0.6277,-0.6304,-0.6267,-0.6264,-0.6264,-0.6262,-0.6284,-0.6286,-0.6293,-0.6331,-0.6332,-0.6297,-0.6298,-0.6299,-0.63,0,0,0,0,0,0,0,-0.6231,-0.6235,-0.6277,-0.6262,-0.6261,-0.6255,-0.6257,-0.6282,-0.6281,-0.6264,-0.6263,-0.6265,-0.6283,-0.6291,-0.6293,-0.6333,-0.6297,-0.6299,-0.63,-0.6301,-0.6403,-0.6405,0,0,0,0,0,0,-0.623,-0.6233,-0.6276,-0.6278,-0.6243,-0.6257,-0.626,-0.6271,-0.6281,-0.6281,-0.6266,-0.6264,-0.6288,-0.6291,-0.6294,-0.6341,-0.6299,-0.6301,-0.6302,-0.6402,-0.6404,-0.6405,0,0,0,0,0,0,-0.6229,-0.6234,-0.6276,-0.6255,-0.626,-0.626,-0.6273,-0.6272,-0.628,-0.6282,-0.6282,-0.6274,-0.6287,-0.6291,-0.6321,-0.6341,-0.6302,-0.6304,-0.64,-0.6402,-0.6404,-0.6436,0,0,0,0,0,0,-0.6227,-0.6234,-0.6249,-0.6256,-0.6261,-0.6302,-0.6274,-0.6273,-0.6283,-0.628,-0.629,-0.629,-0.6286,-0.6318,-0.6323,-0.6344,-0.6306,-0.6398,-0.6401,-0.6404,-0.6433,-0.6439,-0.6444,0,0,0,0,0,-0.6225,-0.6258,-0.625,-0.6255,-0.628,-0.6303,-0.6307,-0.6301,-0.6285,-0.63,-0.6302,-0.629,-0.6338,-0.6321,-0.6327,-0.6348,-0.6397,-0.64,-0.6404,-0.643,-0.6437,-0.6443,0,0,0,0,0,0,-0.6254,-0.6258,-0.625,-0.6285,-0.6294,-0.6299,-0.6319,-0.6309,-0.6323,-0.632,-0.6312,-0.6314,-0.6346,-0.635,-0.6331,-0.6387,-0.6365,-0.637,-0.6384,-0.639,-0.6395,-0.6394,-0.6308,0,0,0,0,0,-0.6265,-0.6283,-0.6286,-0.6317,-0.6321,-0.6319,-0.6329,-0.6324,-0.6333,-0.6337,-0.634,-0.635,-0.6367,-0.6379,-0.6395,-0.6433,-0.6434,-0.645,-0.6456,-0.646,-0.6464,-0.6484,-0.6491,-0.6416,-0.6416,-0.6416,0,0,-0.6287,-0.6291,-0.6304,-0.6323,-0.6329,-0.6348,-0.6323,-0.6344,-0.6358,-0.634,-0.6368,-0.6371,-0.6381,-0.6415,-0.643,-0.642,-0.6485,-0.6464,-0.6468,-0.647,-0.6488,-0.6495,-0.6501,-0.6418,-0.6417,-0.6417,0,0,-0.6337,-0.6342,-0.6369,-0.6375,-0.6384,-0.6382,-0.6388,-0.6394,-0.6395,-0.6423,-0.6409,-0.6426,-0.6456,-0.6463,-0.6471,-0.6522,-0.6511,-0.6527,-0.6556,-0.6575,-0.6581,-0.6586,-0.6604,-0.6611,-0.6531,-0.6531,-0.6531,0,-0.6364,-0.6392,-0.6384,-0.6406,-0.6414,-0.6397,-0.6423,-0.643,-0.6444,-0.645,-0.6437,-0.6473,-0.6479,-0.6514,-0.6526,-0.6533,-0.654,-0.6527,-0.658,-0.6586,-0.659,-0.6607,-0.6614,-0.6533,-0.6533,-0.6533,-0.6532,0,-0.6424,-0.6444,-0.6464,-0.6477,-0.6487,-0.6511,-0.6506,-0.6518,-0.6511,-0.651,-0.6538,-0.6544,-0.6561,-0.6568,-0.6562,-0.6602,-0.6595,-0.6581,-0.6559,-0.66,-0.6615,-0.6622,-0.6536,-0.6535,-0.6535,-0.6534,0,0,-0.6496,-0.6502,-0.6509,-0.6515,-0.6522,-0.6537,-0.656,-0.6575,-0.6585,-0.6595,-0.6614,-0.6638,-0.6625,-0.6634,-0.6628,-0.6645,-0.6684,-0.6629,-0.6629,-0.6639,-0.6728,-0.6739,-0.6746,-0.6677,-0.6678,-0.6679,-0.6727,0,-0.6546,-0.6585,-0.6577,-0.6616,-0.6633,-0.6616,-0.6636,-0.6642,-0.6642,-0.6657,-0.6656,-0.6673,-0.6655,-0.666,-0.6676,-0.6676,-0.6702,-0.6672,-0.6695,-0.6696,-0.6693,-0.6755,-0.6766,-0.6812,-0.6733,-0.6735,-0.6735,0,-0.6611,-0.6622,-0.6661,-0.6665,-0.6672,-0.669,-0.6702,-0.6716,-0.6723,-0.6721,-0.673,-0.6721,-0.6743,-0.672,-0.675,-0.673,-0.6739,-0.674,-0.6742,-0.6744,-0.6719,-0.6759,-0.6826,-0.6833,-0.6745,-0.6744,-0.6744,0,-0.6659,-0.6683,-0.671,-0.6715,-0.672,-0.6732,-0.6735,-0.674,-0.675,-0.676,-0.6766,-0.6779,-0.6787,-0.6798,-0.6792,-0.6776,-0.6824,-0.68,-0.6823,-0.6823,-0.6835,-0.6835,-0.6905,-0.6839,-0.6839,-0.6839,-0.6839,0,-0.6716,-0.6742,-0.6732,-0.6748,-0.6775,-0.6765,-0.6793,-0.6793,-0.6798,-0.6814,-0.68,-0.6816,-0.6807,-0.6822,-0.6817,-0.6843,-0.6847,-0.6846,-0.6845,-0.6848,-0.6848,-0.6854,-0.6851,-0.6841,-0.6841,-0.684,-0.684,0,-0.6776,-0.677,-0.6798,-0.6799,-0.68,-0.682,-0.6821,-0.6836,-0.6834,-0.6854,-0.6859,-0.6855,-0.6872,-0.6866,-0.6885,-0.6882,-0.6915,-0.6909,-0.6912,-0.6911,-0.6934,-0.6932,-0.7012,-0.7021,-0.6949,-0.695,-0.6951,0,-0.6813,-0.6832,-0.6834,-0.6844,-0.6847,-0.6863,-0.6871,-0.6862,-0.6871,-0.6879,-0.6894,-0.6909,-0.692,-0.6948,-0.6947,-0.696,-0.6955,-0.6982,-0.6957,-0.6959,-0.6956,-0.6955,-0.6957,-0.6987,-0.6988,-0.6989,-0.6989,0,-0.688,-0.6876,-0.6889,-0.69,-0.691,-0.6919,-0.6926,-0.6935,-0.6926,-0.6937,-0.6953,-0.6962,-0.698,-0.6995,-0.7007,-0.701,-0.6998,-0.6997,-0.7003,-0.7007,-0.7008,-0.7007,-0.6926,-0.6995,-0.6995,-0.6994,-0.6994,-0.6994,-0.693,-0.6945,-0.6949,-0.6963,-0.6967,-0.6974,-0.6988,-0.6986,-0.7,-0.7013,-0.7006,-0.7025,-0.703,-0.7044,-0.7049,-0.7063,-0.7053,-0.7062,-0.7064,-0.7067,-0.707,-0.7004,-0.7065,-0.7065,-0.7065,-0.7065,-0.7065,0,-0.6996,-0.6997,-0.701,-0.702,-0.7031,-0.7018,-0.7025,-0.7035,-0.7052,-0.7057,-0.7068,-0.7086,-0.71,-0.7099,-0.7112,-0.7124,-0.7119,-0.7128,-0.7127,-0.7128,-0.7078,-0.7071,-0.7132,-0.7132,-0.7132,-0.7132,-0.7132,-0.7132,-0.7032,-0.7057,-0.7053,-0.7079,-0.708,-0.7098,-0.7103,-0.7109,-0.7113,-0.7133,-0.7145,-0.7144,-0.7146,-0.7159,-0.7171,-0.7171,-0.7176,-0.7187,-0.7185,-0.7138,-0.7132,-0.7125,-0.7119,-0.7188,-0.7188,-0.7234,-0.7234,-0.7234]}]]